DW8835 La Escala ES current weather conditions

sailwx.info

Wind from 251 at 4 knots gusting 7

Air temperature 16.7° C
Dewpoint 15.2° C

Last reported at 2014-Jul-30 05:51 UTC.
Time now 2014-Jul-30 07:04 UTC

Location: N 42°07' E 003°08'.
View on Google Maps.

See reports from other nearby stations

  
Tides and Currents Weather Stations Pressure Air Temp Water Temp Dewpoint Dewpoint Depression Visibility Wind Speed Wind Dir Waves Ship Positions
date/time (UTC)wind fromknots sea level pressurealtimeterstation pressurevisibilityair tempwater tempwave heightnotes
2014-Jul-30 05:51 251 4 gusting 7 16.7
2014-Jul-30 05:41 192 4 gusting 6 16.7
2014-Jul-30 05:30 230 1 gusting 6 16.7
2014-Jul-30 05:21 192 2 gusting 6 16.7
2014-Jul-30 05:10 190 4 gusting 6 16.7
2014-Jul-30 05:01 186 16.7
2014-Jul-30 04:50 185 16.7
2014-Jul-30 04:41 186 0 gusting 2 16.7
2014-Jul-30 04:30 186 16.7
2014-Jul-30 04:20 184 0 gusting 5 17.2
2014-Jul-30 04:11 179 1 gusting 3 17.2
2014-Jul-30 04:00 184 17.2
2014-Jul-30 03:51 182 0 gusting 2 17.2
2014-Jul-30 03:40 183 17.2
2014-Jul-30 03:30 183 17.2
2014-Jul-30 03:20 183 17.8
2014-Jul-30 03:11 182 17.8
2014-Jul-30 03:01 211 0 gusting 3 17.8
2014-Jul-30 02:50 196 0 gusting 3 17.8
2014-Jul-30 02:41 205 1 gusting 3 17.8
2014-Jul-30 02:30 200 1 gusting 3 18.3
2014-Jul-30 02:20 195 0 gusting 3 18.3
2014-Jul-30 02:11 183 18.3
2014-Jul-30 02:01 183 18.3
2014-Jul-30 01:51 165 2 gusting 3 18.3
2014-Jul-30 01:40 193 0 gusting 2 18.3
2014-Jul-30 01:30 192 0 gusting 4 18.3
2014-Jul-30 01:21 214 2 gusting 5 18.3
2014-Jul-30 01:11 213 2 gusting 4 18.3
2014-Jul-30 01:01 232 0 gusting 2 18.9
2014-Jul-30 00:51 234 18.9
2014-Jul-30 00:41 232 2 gusting 4 18.9
2014-Jul-30 00:31 239 2 gusting 4 18.9
2014-Jul-30 00:21 229 1 gusting 4 19.4
2014-Jul-30 00:10 209 1 gusting 3 19.4
2014-Jul-30 00:01 201 3 gusting 5 19.4
2014-Jul-29 23:50 207 0 gusting 3 19.4
2014-Jul-29 23:41 178 3 gusting 4 20.0
2014-Jul-29 23:31 020 20.0
2014-Jul-29 23:20 020 1 gusting 3 20.0
2014-Jul-29 23:11 021 1 gusting 6 20.0
2014-Jul-29 23:01 200 2 gusting 5 20.0
2014-Jul-29 22:50 360 20.0
2014-Jul-29 22:40 360 20.0
2014-Jul-29 22:30 360 0 gusting 2 20.0
2014-Jul-29 22:21 360 20.0
2014-Jul-29 22:11 333 20.0
2014-Jul-29 22:00 333 0 gusting 2 20.6
2014-Jul-29 21:51 333 20.6
2014-Jul-29 21:41 333 1 gusting 2 20.6
2014-Jul-29 21:30 333 0 gusting 3 21.1
2014-Jul-29 21:20 333 2 gusting 3 21.1
2014-Jul-29 21:11 299 1 gusting 3 21.1
2014-Jul-29 21:00 267 2 gusting 3 21.7
2014-Jul-29 20:50 267 1 gusting 4 21.7
2014-Jul-29 20:40 265 2 gusting 4 21.7
2014-Jul-29 20:31 186 21.7
2014-Jul-29 20:20 185 1 gusting 6 22.2
2014-Jul-29 20:11 194 4 gusting 8 22.8
2014-Jul-29 20:01 304 6 gusting 12 23.3
2014-Jul-29 19:50 341 7 gusting 15 22.8
2014-Jul-29 19:40 340 6 gusting 10 22.2
2014-Jul-29 19:30 355 1 gusting 6 22.2
2014-Jul-29 19:21 298 3 gusting 4 22.2
2014-Jul-29 19:10 309 0 gusting 4 22.8
2014-Jul-29 19:00 273 2 gusting 6 23.3
2014-Jul-29 18:50 299 2 gusting 10 23.3
2014-Jul-29 18:41 308 6 gusting 11 23.9
2014-Jul-29 18:30 005 6 gusting 13 24.4
2014-Jul-29 18:20 330 7 gusting 13 24.4
2014-Jul-29 18:10 319 8 gusting 16 25.0
2014-Jul-29 18:00 345 8 gusting 17 25.0
2014-Jul-29 17:50 306 8 gusting 17 25.0
2014-Jul-29 17:40 317 9 gusting 14 25.6
2014-Jul-29 17:30 327 8 gusting 16 25.6
2014-Jul-29 17:20 012 10 gusting 19 25.6
2014-Jul-29 17:10 312 13 gusting 20 25.6
2014-Jul-29 17:00 355 12 gusting 20 25.6
2014-Jul-29 16:50 346 11 gusting 19 25.6
2014-Jul-29 16:41 319 7 gusting 17 25.6
2014-Jul-29 16:30 318 11 gusting 20 26.1
2014-Jul-29 16:20 294 9 gusting 20 25.6
2014-Jul-29 16:10 326 7 gusting 19 25.6
2014-Jul-29 16:00 010 11 gusting 19 25.6
2014-Jul-29 15:50 311 10 gusting 19 26.1
2014-Jul-29 15:40 315 11 gusting 20 26.1
2014-Jul-29 15:30 346 10 gusting 19 26.7
2014-Jul-29 15:20 309 12 gusting 21 26.1
2014-Jul-29 15:10 011 10 gusting 19 26.1
2014-Jul-29 15:00 355 11 gusting 19 26.1
2014-Jul-29 14:50 340 13 gusting 20 26.1
2014-Jul-29 14:40 355 8 gusting 18 26.1
2014-Jul-29 14:30 334 11 gusting 19 26.7
2014-Jul-29 14:20 335 13 gusting 22 26.1
2014-Jul-29 14:10 340 13 gusting 19 26.1
2014-Jul-29 14:00 347 12 gusting 24 26.1
2014-Jul-29 13:50 306 11 gusting 25 25.6
2014-Jul-29 13:40 355 10 gusting 27 26.1
2014-Jul-29 13:30 290 11 gusting 24 26.1
2014-Jul-29 13:21 315 14 gusting 26 26.1
2014-Jul-29 13:11 314 13 gusting 25 25.6
2014-Jul-29 13:01 330 14 gusting 20 25.6
2014-Jul-29 12:51 005 12 gusting 23 25.6
2014-Jul-29 12:41 360 13 gusting 26 25.6
2014-Jul-29 12:31 324 12 gusting 25 25.6
2014-Jul-29 12:20 324 11 gusting 21 25.6
2014-Jul-29 12:11 321 13 gusting 19 25.0
2014-Jul-29 12:01 328 10 gusting 20 25.6
2014-Jul-29 11:51 030 10 gusting 21 25.6
2014-Jul-29 11:30 360 11 gusting 21 24.4
2014-Jul-29 11:20 336 10 gusting 15 24.4
2014-Jul-29 11:10 295 10 gusting 20 23.3
2014-Jul-29 11:01 329 13 gusting 19 23.9
2014-Jul-29 10:50 343 10 gusting 21 23.9
2014-Jul-29 10:40 335 13 gusting 21 23.3
2014-Jul-29 10:30 302 10 gusting 19 23.9
2014-Jul-29 10:20 327 6 gusting 19 23.9
2014-Jul-29 10:10 344 13 gusting 19 23.9
2014-Jul-29 10:00 314 10 gusting 24 22.8
2014-Jul-29 09:50 320 6 gusting 13 22.8
2014-Jul-29 09:41 309 11 gusting 22 22.8
2014-Jul-29 09:30 324 13 gusting 23 22.8
2014-Jul-29 09:20 330 13 gusting 19 23.3
2014-Jul-29 09:10 355 6 gusting 15 22.8
2014-Jul-29 09:00 321 7 gusting 16 22.8
2014-Jul-29 08:50 337 8 gusting 15 22.8
2014-Jul-29 08:41 329 6 gusting 15 22.8
2014-Jul-29 08:30 348 6 gusting 10 22.8
2014-Jul-29 08:20 314 5 gusting 11 22.2
2014-Jul-29 08:10 342 7 gusting 13 21.7
2014-Jul-29 08:00 312 8 gusting 13 21.7
2014-Jul-29 07:50 320 7 gusting 17 21.1
2014-Jul-29 07:41 311 9 gusting 19 21.1
2014-Jul-29 07:30 332 10 gusting 16 20.6
2014-Jul-29 07:20 307 9 gusting 16 20.6
2014-Jul-29 07:10 319 8 gusting 14 20.0
2014-Jul-29 07:00 334 6 gusting 13 18.9
2014-Jul-29 06:50 302 8 gusting 15 18.9
2014-Jul-29 06:40 318 7 gusting 15 18.9
2014-Jul-29 06:30 344 6 gusting 13 18.3
2014-Jul-29 06:20 327 5 gusting 12 18.3
2014-Jul-29 06:10 339 6 gusting 12 18.3
2014-Jul-29 06:00 005 3 gusting 6 18.3
2014-Jul-29 05:50 350 2 gusting 6 17.8
2014-Jul-29 05:40 010 0 gusting 4 17.8
2014-Jul-29 05:30 360 2 gusting 4 17.8
2014-Jul-29 05:20 351 2 gusting 4 17.8
2014-Jul-29 05:10 019 1 gusting 4 17.8
2014-Jul-29 05:00 020 1 gusting 4 17.8
2014-Jul-29 04:50 005 3 gusting 6 17.8
2014-Jul-29 04:40 355 2 gusting 6 18.3
2014-Jul-29 04:30 005 6 gusting 9 18.3
2014-Jul-29 04:20 338 4 gusting 7 18.3
2014-Jul-29 04:10 012 5 gusting 10 18.9
2014-Jul-29 04:00 005 6 gusting 11 18.3
2014-Jul-29 03:50 327 8 gusting 14 18.3
2014-Jul-29 03:40 348 6 gusting 11 17.8
2014-Jul-29 03:30 351 5 gusting 9 18.3
2014-Jul-29 03:20 005 2 gusting 10 18.3
2014-Jul-29 03:10 005 3 gusting 9 17.8
2014-Jul-29 03:00 331 5 gusting 8 17.8
2014-Jul-29 02:50 038 17.8
2014-Jul-29 02:40 038 0 gusting 5 18.3
2014-Jul-29 02:30 029 1 gusting 6 18.3
2014-Jul-29 02:20 074 18.9
2014-Jul-29 02:10 074 18.9
2014-Jul-29 02:00 132 18.9
2014-Jul-29 01:50 132 18.9
2014-Jul-29 01:40 132 18.9
2014-Jul-29 01:30 132 18.9
2014-Jul-29 01:20 116 1 gusting 4 18.9
2014-Jul-29 01:10 116 18.9
2014-Jul-29 01:00 117 0 gusting 4 18.9
2014-Jul-29 00:50 136 1 gusting 4 18.9
2014-Jul-29 00:40 056 0 gusting 3 18.9
2014-Jul-29 00:30 051 0 gusting 4 18.9
2014-Jul-29 00:20 125 1 gusting 3 18.9
2014-Jul-29 00:10 121 19.4
2014-Jul-29 00:00 088 0 gusting 2 19.4
2014-Jul-28 23:50 161 19.4
2014-Jul-28 23:40 159 0 gusting 3 18.9
2014-Jul-28 23:30 171 18.9
2014-Jul-28 23:20 086 18.9
2014-Jul-28 23:10 086 18.9
2014-Jul-28 23:00 086 1 gusting 4 19.4
2014-Jul-28 22:50 086 19.4
2014-Jul-28 22:40 085 18.9
2014-Jul-28 22:30 040 18.9
2014-Jul-28 22:20 040 19.4
2014-Jul-28 22:10 055 1 gusting 5 20.6
2014-Jul-28 22:00 317 3 gusting 4 20.6
2014-Jul-28 21:50 045 20.6
2014-Jul-28 21:40 342 20.6
2014-Jul-28 21:30 252 20.6
2014-Jul-28 21:20 255 3 gusting 4 20.6
2014-Jul-28 21:10 012 20.6
2014-Jul-28 21:00 231 0 gusting 4 20.6
2014-Jul-28 20:50 212 3 gusting 5 20.6
2014-Jul-28 20:40 311 20.6
2014-Jul-28 20:30 311 20.6
2014-Jul-28 20:20 211 2 gusting 4 20.6
2014-Jul-28 20:10 194 1 gusting 2 20.6
2014-Jul-28 20:00 185 2 gusting 6 20.6
2014-Jul-28 19:50 188 2 gusting 6 21.1
2014-Jul-28 19:40 228 2 gusting 6 21.1
2014-Jul-28 19:30 181 1 gusting 4 21.1
2014-Jul-28 19:10 304 2 gusting 3 21.1
2014-Jul-28 19:00 005 1 gusting 3 21.1
2014-Jul-28 18:50 005 21.1
2014-Jul-28 18:40 005 21.1
2014-Jul-28 18:30 345 0 gusting 2 21.1
2014-Jul-28 18:20 345 0 gusting 2 21.1
2014-Jul-28 18:10 345 1 gusting 2 21.1
2014-Jul-28 18:00 345 1 gusting 2 21.1
2014-Jul-28 17:50 346 0 gusting 2 21.1
2014-Jul-28 17:40 346 21.1
2014-Jul-28 17:30 346 0 gusting 3 21.1
2014-Jul-28 17:20 313 2 gusting 4 21.1
2014-Jul-28 17:10 355 2 gusting 4 21.1
2014-Jul-28 17:00 355 2 gusting 5 21.1
2014-Jul-28 16:50 338 2 gusting 3 21.1
2014-Jul-28 16:40 336 2 gusting 3 21.1
2014-Jul-28 16:30 355 2 gusting 3 21.1
2014-Jul-28 16:20 355 0 gusting 6 20.6
2014-Jul-28 16:10 348 3 gusting 6 21.1
2014-Jul-28 16:00 336 5 gusting 7 21.1
2014-Jul-28 15:50 330 5 gusting 6 21.1
2014-Jul-28 15:40 005 3 gusting 6 21.1
2014-Jul-28 15:30 009 0 gusting 3 21.1
2014-Jul-28 15:20 005 1 gusting 3 21.1
2014-Jul-28 15:10 326 21.1
2014-Jul-28 15:00 305 2 gusting 4 21.7
2014-Jul-28 14:50 129 21.1
2014-Jul-28 14:40 126 1 gusting 5 21.7
2014-Jul-28 14:30 066 0 gusting 3 21.7
2014-Jul-28 14:20 024 2 gusting 6 21.7
2014-Jul-28 14:10 167 4 gusting 6 21.7
2014-Jul-28 14:00 344 0 gusting 9 22.2
2014-Jul-28 13:50 313 2 gusting 5 22.8
2014-Jul-28 13:40 294 4 gusting 6 23.3
2014-Jul-28 13:30 336 0 gusting 2 23.9
2014-Jul-28 13:20 158 0 gusting 5 24.4
2014-Jul-28 13:10 159 0 gusting 4 24.4
2014-Jul-28 13:00 355 0 gusting 3 25.0
2014-Jul-28 12:50 126 0 gusting 6 25.0
2014-Jul-28 12:40 148 4 gusting 7 25.0
2014-Jul-28 12:30 158 5 gusting 7 25.6
2014-Jul-28 12:20 144 4 gusting 8 25.6
2014-Jul-28 12:10 101 6 gusting 10 25.6
2014-Jul-28 12:00 134 6 gusting 10 25.6
2014-Jul-28 11:50 139 3 gusting 10 25.6
2014-Jul-28 11:40 126 4 gusting 12 25.0
2014-Jul-28 11:30 146 4 gusting 9 25.0
2014-Jul-28 11:20 101 3 gusting 8 25.0
2014-Jul-28 11:10 095 1 gusting 5 25.6
2014-Jul-28 11:00 121 1 gusting 5 25.0
2014-Jul-28 10:50 102 3 gusting 6 25.0
2014-Jul-28 10:40 050 2 gusting 7 25.6
2014-Jul-28 10:30 098 2 gusting 6 26.1
2014-Jul-28 10:20 092 2 gusting 6 25.6
2014-Jul-28 10:10 102 2 gusting 4 25.0
2014-Jul-28 10:00 082 1 gusting 4 25.6
2014-Jul-28 09:50 074 2 gusting 6 25.0
2014-Jul-28 09:40 090 1 gusting 7 25.6
2014-Jul-28 09:30 081 1 gusting 4 25.6
2014-Jul-28 09:20 074 1 gusting 4 26.7
2014-Jul-28 09:10 109 2 gusting 4 26.1
2014-Jul-28 09:00 121 0 gusting 4 25.6
2014-Jul-28 08:50 101 3 gusting 4 25.6
2014-Jul-28 08:40 088 1 gusting 4 25.6
2014-Jul-28 08:30 079 1 gusting 2 26.1
2014-Jul-28 08:20 063 0 gusting 2 26.1
2014-Jul-28 08:10 272 26.1
2014-Jul-28 08:00 250 0 gusting 1 26.1
2014-Jul-28 07:50 227 1 gusting 4 25.6
2014-Jul-28 07:40 279 1 gusting 4 25.0
2014-Jul-28 07:30 298 2 gusting 4 25.0
2014-Jul-28 07:20 242 2 gusting 4 24.4
2014-Jul-28 07:10 192 2 gusting 5 24.4
2014-Jul-28 07:00 205 1 gusting 5 23.9